sat.trackr.live / text

‹ back to catalog

STARLINK-2040

NORAD 47656 · 2021-012AN

PAYLOAD ACTIVE UNKNOWN

§ Identity

Operator
Country
US
Launch date
2021-02-16
Launch site
AFETR
Launch vehicle
Mass (kg)
RCS (m²)

Purposes: comms

External: N2YO · Heavens-Above · Gunter

§ Orbital elements

Epoch: 2026-05-25T02:57:56.702880Z

Period
94.01 min
Inclination
53.1606°
Eccentricity
0.0001454
Mean motion
15.31721237 rev/d
Perigee alt
469.7 km
Apogee alt
471.7 km
Semi-major
6,848.8 km
B*
3.8408e-4
RAAN
54.0216°
Arg perigee
108.9667°
Mean anomaly
251.1492°
Rev number
29,200

§ Raw data

STARLINK-20401 47656U 21012AN  26145.12357295  .00011580  00000+0  38408-3 0  99962 47656  53.1606  54.0216 0001454 108.9667 251.1492 15.31721237292009

JSON: /api/v1/satellites/47656 · /tle

For live sub-satellite position, see the globe view (requires WebGL).

§ Visibility from observer

Set your observer location to see the next 7 days of passes ≥ 10°. The values pass through the URL so the page stays shareable.

No JS? Fill the form by hand. The geolocation button needs JavaScript.